User: anonymous   Login
Location: Stoke Bliss
(52.2667°N, 2.5167°W)
Time: 16:45:55
(UTC+00:00)
Language:

ARIANE 5 R/B - Orbit

View from above orbital plane
View from above orbital plane
View from above satellite
View from above satellite

Ground track
Ground track

The orbit data is extracted from the following two-line orbital elements,

1 36125U 09073B   21131.86246723 0.00000000  00000-0  00000-0 0    05
2 36125  98.1397 198.5548 0025978  57.4013 302.5986 14.77161088    03
Epoch (UTC): 11 May 2021 20:41:57
Eccentricity: 0.0025978
inclination: 98.1397°
perigee height: 620 km
apogee height: 656 km
right ascension of ascending node: 198.5548°
argument of perigee: 57.4013°
revolutions per day: 14.77161088
mean anomaly at epoch: 302.5986°
orbit number at epoch: 0

The dashed part of the orbit path shows where the satellite is in the earth's shadow,  

DLR